Notices

What's New in latest Release from April 7th, 2021:

- Updated Glossary, including Speed of Maximum Gust, and Total Hourly Precipitation

- Updated national and regional climate services offices contacts and prices information

- Addition of station inventory lists for 1981-2010, 1971-2000, and 1961-1990 Normals.

If you haven't already, please take our survey and provide feedback about our website: https://eccc.sondage-survey.ca/f/LanguageSelection.aspx?s=442ca660-fcf1-47c0-95a9-59707d6fd709

Hourly Data Report for April 01, 2018

MIRAMICHI RCS
NEW BRUNSWICK
Current Station Operator: ECCC - MSC

47°00'34.000" N
65°27'54.000" W
33.00 m
8100989
71744
ACQ

Download Data

Hourly Data (April 2018)
Hourly Data Report for April 1, 2018
TIME
LST
Temp Definition
°C
Dew Point Definition
°C
Rel Hum Definition
%
Precip. Amount Definition
mm

Wind Dir Definition
10's deg

Wind Spd Definition
km/h
Visibility Definition
km
Stn Press Definition
kPa
Hmdx Definition


Wind Chill Definition


Weather Definition


00:00 -2.7 -6.8 74 0.0 25 1   101.22   -3 LegendNANA
01:00 -1.8 -7.5 65 0.0 12 2   101.21   -3 LegendNANA
02:00 -2.4 -6.3 75 0.0 7 4   101.18   -4 LegendNANA
03:00 -1.6 -6.9 67 0.0 10 1   101.14   -2 LegendNANA
04:00 -1.9 -5.4 77 0.0 12 7   101.00   -5 LegendNANA
05:00 -1.9 -5.9 74 0.0 10 6   100.89   -4 LegendNANA
06:00 -1.2 -5.7 72 0.0 7 4   100.77   -3 LegendNANA
07:00 -1.1 -4.5 77 0.0 11 8   100.62   -4 LegendNANA
08:00 2.8 -2.6 67 0.0 19 16   100.48     LegendNANA
09:00 4.3 -1.7 65 0.0 20 27   100.31     LegendNANA
10:00 4.7 -1.0 66 0.0 21 35   100.21     LegendNANA
11:00 3.8 0.5 79 0.3 22 32   100.17     LegendNANA
12:00 3.1 1.2 88 0.0 21 29   100.08     LegendNANA
13:00 2.5 1.2 91 1.4 20 30   100.01     LegendNANA
14:00 3.2 1.8 90 0.2 20 27   99.88     LegendNANA
15:00 4.3 1.7 84 0.0 23 28   99.88     LegendNANA
16:00 5.2 1.8 79 0.0 23 28   99.82     LegendNANA
17:00 6.0 0.2 66 0.0 24 30   99.82     LegendNANA
18:00 6.9 -7.8 34 0.0 27 30   99.90     LegendNANA
19:00 5.0 -8.1 38 0.0 27 21   100.05     LegendNANA
20:00 4.0 -8.2 41 0.0 28 28   100.20     LegendNANA
21:00 2.5 -6.5 52 0.0 29 19   100.33     LegendNANA
22:00 1.4 -8.0 49 0.0 29 23   100.47     LegendNANA
23:00 0.3 -10.4 45 0.0 29 22   100.57     LegendNANA

Notes on Data Quality.

Legend

  • E = Estimated
  • M = Missing
  • NA = Not Available*
  • [empty] = Indicates an unobserved value
Date modified: